Regional Weather Roundup
Issued by NWS Little Rock, AR

Home | Current Version | Previous Version | Text Only | Print | Product List | Glossary On
Versions: 1 2 3 4 5 6 7 8 9 10 11 12 13 14 15 16 17 18 19 20 21 22 23 24 25 26 27 28 29 30 31 32 33 34 35 36 37 38 39 40 41 42 43 44 45 46 47 48 49 50
123
ASUS44 KLZK 260105
RWRLZK

WEATHER ROUNDUP FOR ARKANSAS
NATIONAL WEATHER SERVICE LITTLE ROCK AR
800 PM CDT SUN SEP 25 2016

NOTE: "FAIR" INDICATES FEW OR NO CLOUDS BELOW 12,000 FEET WITH NO
SIGNIFICANT WEATHER AND/OR OBSTRUCTIONS TO VISIBILITY.

ARZ001-003-010-029-260200-
NORTHWEST ARKANSAS

CITY           SKY/WX    TMP DP  RH WIND       PRES   REMARKS
FAYETTEVILLE   CLOUDY    71  70  96 N12       30.11R
FORT SMITH     MOCLDY    78  69  73 NW10      30.05R
HARRISON       CLEAR     73  68  84 NW6       30.09R
BENTONVILLE    CLOUDY    70  61  73 N15G24    30.13R
ROGERS         CLOUDY    67  65  93 N12G22    30.13R
SILOAM SPGS    CLOUDY    68  57  68 N10         N/A
HIGHFILL       CLOUDY    69  66  90 N15       30.12R
SPRINGDALE     CLOUDY    72  70  94 N9G16     30.13R
$$

ARZ004-005-016-260200-
NORTH CENTRAL ARKANSAS

CITY           SKY/WX    TMP DP  RH WIND       PRES   REMARKS
BATESVILLE     CLEAR     77  72  83 CALM      30.02R
FLIPPIN        PTCLDY    81  64  57 NW12G18   30.03R
MTN HOME       PTCLDY    77  68  73 N5        30.04R
$$

ARZ040-041-260200-
WEST CENTRAL ARKANSAS

CITY           SKY/WX    TMP DP  RH WIND       PRES   REMARKS
MENA           CLEAR     75  73  94 CALM      30.06R
MOUNT IDA      CLEAR     75  72  90 CALM      30.02R
$$

ARZ009-017-025-026-028-260200-
NORTHEAST ARKANSAS

CITY           SKY/WX    TMP DP  RH WIND       PRES   REMARKS
CORNING          N/A     79  73  83 N5        30.01R
JONESBORO      CLEAR     83  69  62 N6        29.99R HX  86
NEWPORT        CLEAR     80  72  76 CALM      30.00R
WALNUT RIDGE   CLEAR     81  70  69 W5        30.00R
BLYTHEVILLE    CLEAR     83  69  62 CALM      29.99R HX  86
$$

ARZ022-023-033-042-044-260200-
CENTRAL ARKANSAS

CITY           SKY/WX    TMP DP  RH WIND       PRES   REMARKS
LITTLE ROCK    PTCLDY    83  69  62 SW5       30.01R HX  86
N LITTLE ROCK    N/A     81  68  63 CALM      29.99R
JACKSONVILLE   CLEAR     80  74  83 N1        30.01R
SEARCY         CLEAR     77  75  93 CALM      30.02R
HOT SPRINGS    CLEAR     81  71  71 CALM      30.02R HX  85
RUSSELLVILLE   CLEAR     77  73  87 CALM      30.00R
$$

ARZ036-260200-
EAST ARKANSAS

CITY           SKY/WX    TMP DP  RH WIND       PRES   REMARKS
WEST MEMPHIS   HAZE      78  66  66 NW3       29.98R VSB 1
$$

ARZ050-053-066-070-073-260200-
SOUTHWEST ARKANSAS

CITY           SKY/WX    TMP DP  RH WIND       PRES   REMARKS
ARKADELPHIA    FAIR      77  75  93 CALM      30.01R
TEXARKANA      CLOUDY    77  68  73 CALM      30.01S
EL DORADO      CLEAR     77  73  87 NW3       30.01R FOG
DE QUEEN       CLEAR     75  74  96 CALM      30.00R
$$

ARZ056-057-069-260200-
SOUTHEAST ARKANSAS

CITY           SKY/WX    TMP DP  RH WIND       PRES   REMARKS
PINE BLUFF     CLOUDY    81  68  64 E5        30.01R
STUTTGART      PTCLDY    81  64  57 CALM      30.01R
MONTICELLO     LGT RAIN  78  73  84 CALM      30.01R

$$






USA.gov is the U.S. government's official web portal to all federal, state and local government web resources and services.